Track COSMOS 2502 now! 10-day predictions COSMOS 2502 is classified as:
1 40358U 14086A 24279.19970961 .00000368 00000-0 31384-3 0 9994 2 40358 67.1507 76.5941 0006677 286.6989 73.3363 13.97668939499013